Time,TemperatureF,DewpointF,PressureIn,WindDirection,WindDirectionDegrees,WindSpeedMPH,WindSpeedGustMPH,Humidity,HourlyPrecipIn,Conditions,Clouds,dailyrainin,SolarRadiationWatts/m^2,SoftwareType,DateUTC
2013-04-18 00:02:00,53.9,53.9,30.23,NNE,33,0.0,1.0,100,0.00,,,0.00,0,Wunderground v.1.15,2013-04-18 07:02:00,
2013-04-18 00:07:00,53.5,53.5,30.23,SSW,204,0.0,1.0,100,0.00,,,0.00,0,Wunderground v.1.15,2013-04-18 07:07:00,
2013-04-18 00:13:00,53.4,53.4,30.23,WSW,239,0.0,1.0,100,0.00,,,0.00,0,Wunderground v.1.15,2013-04-18 07:13:00,
2013-04-18 00:19:00,53.0,53.0,30.23,SE,142,0.0,2.0,100,0.00,,,0.00,0,Wunderground v.1.15,2013-04-18 07:19:00,
2013-04-18 00:25:00,52.6,52.6,30.23,NNE,25,0.0,1.0,100,0.00,,,0.00,0,Wunderground v.1.15,2013-04-18 07:25:00,
2013-04-18 00:30:00,52.4,52.4,30.23,ENE,74,0.0,0.0,100,0.00,,,0.00,0,Wunderground v.1.15,2013-04-18 07:30:00,
2013-04-18 00:36:00,52.4,52.4,30.23,ENE,74,0.0,1.0,100,0.00,,,0.00,0,Wunderground v.1.15,2013-04-18 07:36:00,
2013-04-18 00:42:00,52.5,52.5,30.23,NE,52,0.0,0.0,100,0.00,,,0.00,0,Wunderground v.1.15,2013-04-18 07:42:00,
2013-04-18 00:47:00,52.5,52.5,30.23,North,0,0.0,2.0,100,0.00,,,0.00,0,Wunderground v.1.15,2013-04-18 07:47:00,
2013-04-18 00:53:00,52.4,52.4,30.22,ESE,110,1.0,1.0,100,0.00,,,0.00,0,Wunderground v.1.15,2013-04-18 07:53:00,
2013-04-18 00:58:00,52.1,52.1,30.23,SSE,153,0.0,2.0,100,0.00,,,0.00,0,Wunderground v.1.15,2013-04-18 07:58:00,
2013-04-18 01:04:00,51.9,51.9,30.22,SE,135,3.0,3.0,100,0.00,,,0.00,0,Wunderground v.1.15,2013-04-18 08:04:00,
2013-04-18 01:09:00,51.9,51.9,30.22,SE,124,0.0,3.0,100,0.00,,,0.00,0,Wunderground v.1.15,2013-04-18 08:09:00,
2013-04-18 01:15:00,52.1,52.1,30.22,ESE,107,0.0,0.0,100,0.00,,,0.00,0,Wunderground v.1.15,2013-04-18 08:15:00,
2013-04-18 01:21:00,52.5,52.5,30.22,NE,48,1.0,1.0,100,0.00,,,0.00,0,Wunderground v.1.15,2013-04-18 08:21:00,
2013-04-18 01:27:00,52.9,52.9,30.22,NE,43,0.0,1.0,100,0.00,,,0.00,0,Wunderground v.1.15,2013-04-18 08:27:00,
2013-04-18 01:32:00,52.8,52.8,30.22,SW,233,0.0,1.0,100,0.00,,,0.00,0,Wunderground v.1.15,2013-04-18 08:32:00,
2013-04-18 01:37:00,52.1,52.1,30.23,SE,144,2.0,4.0,100,0.00,,,0.00,0,Wunderground v.1.15,2013-04-18 08:37:00,
2013-04-18 01:43:00,51.8,51.8,30.22,SE,128,2.0,2.0,100,0.00,,,0.00,0,Wunderground v.1.15,2013-04-18 08:43:00,
2013-04-18 01:49:00,51.8,51.8,30.23,ESE,110,0.0,5.0,100,0.00,,,0.00,0,Wunderground v.1.15,2013-04-18 08:49:00,
2013-04-18 01:54:00,51.8,51.8,30.22,ESE,110,0.0,0.0,100,0.00,,,0.00,0,Wunderground v.1.15,2013-04-18 08:54:00,
2013-04-18 02:00:00,51.9,51.9,30.23,SSE,154,0.0,3.0,100,0.00,,,0.00,0,Wunderground v.1.15,2013-04-18 09:00:00,
2013-04-18 02:08:00,51.7,51.7,30.23,South,176,0.0,3.0,100,0.00,,,0.00,0,Wunderground v.1.15,2013-04-18 09:08:00,
2013-04-18 02:13:00,51.7,51.7,30.22,WNW,293,2.0,2.0,100,0.00,,,0.00,0,Wunderground v.1.15,2013-04-18 09:13:00,
2013-04-18 02:19:00,51.7,51.7,30.23,NW,322,4.0,4.0,100,0.00,,,0.00,0,Wunderground v.1.15,2013-04-18 09:19:00,
2013-04-18 02:25:00,51.9,51.9,30.23,North,0,0.0,3.0,100,0.00,,,0.00,0,Wunderground v.1.15,2013-04-18 09:25:00,
2013-04-18 02:30:00,51.4,51.4,30.23,SSE,151,0.0,1.0,100,0.00,,,0.00,0,Wunderground v.1.15,2013-04-18 09:30:00,
2013-04-18 02:35:00,51.0,51.0,30.23,SE,145,0.0,2.0,100,0.00,,,0.00,0,Wunderground v.1.15,2013-04-18 09:35:00,
2013-04-18 02:42:00,50.7,50.7,30.23,SSE,151,1.0,2.0,100,0.00,,,0.00,0,Wunderground v.1.15,2013-04-18 09:42:00,
2013-04-18 02:48:00,50.5,50.5,30.22,SE,142,1.0,2.0,100,0.00,,,0.00,0,Wunderground v.1.15,2013-04-18 09:48:00,
2013-04-18 02:54:00,50.5,50.5,30.22,North,3,0.0,2.0,100,0.00,,,0.00,0,Wunderground v.1.15,2013-04-18 09:54:00,
2013-04-18 03:00:00,50.3,50.3,30.22,North,0,0.0,0.0,100,0.00,,,0.00,0,Wunderground v.1.15,2013-04-18 10:00:00,
2013-04-18 03:07:00,49.9,49.9,30.23,South,178,0.0,6.0,100,0.00,,,0.00,0,Wunderground v.1.15,2013-04-18 10:07:00,
2013-04-18 03:13:00,49.7,49.7,30.22,SSE,151,1.0,4.0,100,0.00,,,0.00,0,Wunderground v.1.15,2013-04-18 10:13:00,
2013-04-18 03:19:00,49.5,49.5,30.22,SSE,156,0.0,4.0,100,0.00,,,0.00,0,Wunderground v.1.15,2013-04-18 10:19:00,
2013-04-18 03:24:00,49.2,49.2,30.22,SE,139,1.0,2.0,100,0.00,,,0.00,0,Wunderground v.1.15,2013-04-18 10:24:00,
2013-04-18 03:30:00,49.0,49.0,30.23,SSE,152,0.0,0.0,100,0.00,,,0.00,0,Wunderground v.1.15,2013-04-18 10:30:00,
2013-04-18 03:36:00,48.6,48.6,30.23,SSE,152,0.0,2.0,100,0.00,,,0.00,0,Wunderground v.1.15,2013-04-18 10:36:00,
2013-04-18 03:41:00,48.2,48.2,30.23,SE,135,1.0,2.0,100,0.00,,,0.00,0,Wunderground v.1.15,2013-04-18 10:41:00,
2013-04-18 03:46:00,47.8,47.8,30.23,SE,131,2.0,2.0,100,0.00,,,0.00,0,Wunderground v.1.15,2013-04-18 10:46:00,
2013-04-18 03:52:00,47.7,47.7,30.23,SE,137,0.0,1.0,100,0.00,,,0.00,0,Wunderground v.1.15,2013-04-18 10:52:00,
2013-04-18 03:58:00,47.7,47.7,30.23,SE,134,1.0,1.0,100,0.00,,,0.00,0,Wunderground v.1.15,2013-04-18 10:58:00,
2013-04-18 04:04:00,47.2,47.2,30.23,ENE,72,0.0,4.0,100,0.00,,,0.00,0,Wunderground v.1.15,2013-04-18 11:04:00,
2013-04-18 04:09:00,47.0,47.0,30.24,ENE,72,0.0,4.0,100,0.00,,,0.00,0,Wunderground v.1.15,2013-04-18 11:09:00,
2013-04-18 04:15:00,46.5,46.5,30.24,NNE,24,0.0,0.0,100,0.00,,,0.00,0,Wunderground v.1.15,2013-04-18 11:15:00,
2013-04-18 04:20:00,46.1,46.1,30.24,NNE,27,0.0,0.0,100,0.00,,,0.00,0,Wunderground v.1.15,2013-04-18 11:20:00,
2013-04-18 04:26:00,45.7,45.7,30.24,North,9,0.0,2.0,100,0.00,,,0.00,0,Wunderground v.1.15,2013-04-18 11:26:00,
2013-04-18 04:32:00,45.5,45.5,30.24,East,96,0.0,0.0,100,0.00,,,0.00,0,Wunderground v.1.15,2013-04-18 11:32:00,
2013-04-18 04:37:00,45.2,45.2,30.24,East,91,0.0,0.0,100,0.00,,,0.00,0,Wunderground v.1.15,2013-04-18 11:37:00,
2013-04-18 04:42:00,45.2,45.2,30.24,ENE,77,0.0,0.0,100,0.00,,,0.00,0,Wunderground v.1.15,2013-04-18 11:42:00,
2013-04-18 04:48:00,45.0,45.0,30.24,NE,39,0.0,0.0,100,0.00,,,0.00,0,Wunderground v.1.15,2013-04-18 11:48:00,
2013-04-18 04:53:00,44.6,44.6,30.24,NE,40,0.0,0.0,100,0.00,,,0.00,0,Wunderground v.1.15,2013-04-18 11:53:00,
2013-04-18 04:58:00,44.2,-99.9,30.24,NNE,23,0.0,1.0,255,0.00,,,0.00,0,Wunderground v.1.15,2013-04-18 11:58:00,
2013-04-18 05:07:00,44.2,-99.9,30.24,ESE,113,0.0,4.0,255,0.00,,,0.00,0,Wunderground v.1.15,2013-04-18 12:07:00,
2013-04-18 05:12:00,44.1,-99.9,30.24,NE,34,0.0,0.0,255,0.00,,,0.00,0,Wunderground v.1.15,2013-04-18 12:12:00,
2013-04-18 05:17:00,44.0,-99.9,30.24,East,81,1.0,1.0,255,0.00,,,0.00,0,Wunderground v.1.15,2013-04-18 12:17:00,
2013-04-18 05:23:00,44.3,-99.9,30.25,NE,34,0.0,2.0,255,0.00,,,0.00,0,Wunderground v.1.15,2013-04-18 12:23:00,
2013-04-18 05:29:00,44.0,-99.9,30.25,NNE,18,0.0,2.0,255,0.00,,,0.00,0,Wunderground v.1.15,2013-04-18 12:29:00,
2013-04-18 05:35:00,43.3,34.5,30.25,NE,40,0.0,0.0,71,0.00,,,0.00,0,Wunderground v.1.15,2013-04-18 12:35:00,
2013-04-18 05:40:00,42.7,34.6,30.25,NNE,27,1.0,1.0,73,0.00,,,0.00,0,Wunderground v.1.15,2013-04-18 12:40:00,
2013-04-18 05:46:00,42.1,34.7,30.26,NE,40,1.0,1.0,75,0.00,,,0.00,0,Wunderground v.1.15,2013-04-18 12:46:00,
2013-04-18 05:52:00,42.1,34.1,30.26,NE,49,0.0,0.0,73,0.00,,,0.00,0,Wunderground v.1.15,2013-04-18 12:52:00,
2013-04-18 05:57:00,42.3,33.6,30.26,ENE,77,0.0,1.0,71,0.00,,,0.00,0,Wunderground v.1.15,2013-04-18 12:57:00,
2013-04-18 06:03:00,42.4,32.9,30.26,ENE,77,0.0,2.0,69,0.00,,,0.00,0,Wunderground v.1.15,2013-04-18 13:03:00,
2013-04-18 06:08:00,43.0,32.0,30.26,ESE,102,0.0,2.0,65,0.00,,,0.00,0,Wunderground v.1.15,2013-04-18 13:08:00,
2013-04-18 06:14:00,43.5,32.1,30.26,ESE,102,0.0,1.0,64,0.00,,,0.00,0,Wunderground v.1.15,2013-04-18 13:14:00,
2013-04-18 06:20:00,43.4,34.3,30.26,ESE,102,2.0,2.0,70,0.00,,,0.00,0,Wunderground v.1.15,2013-04-18 13:20:00,
2013-04-18 06:26:00,43.1,34.7,30.26,ESE,112,0.0,2.0,72,0.00,,,0.00,0,Wunderground v.1.15,2013-04-18 13:26:00,
2013-04-18 06:32:00,42.9,34.1,30.27,ESE,105,2.0,2.0,71,0.00,,,0.00,0,Wunderground v.1.15,2013-04-18 13:32:00,
2013-04-18 06:38:00,43.1,32.9,30.27,ESE,103,0.0,2.0,67,0.00,,,0.00,0,Wunderground v.1.15,2013-04-18 13:38:00,
2013-04-18 06:44:00,43.4,33.9,30.27,ESE,113,0.0,2.0,69,0.00,,,0.00,0,Wunderground v.1.15,2013-04-18 13:44:00,
2013-04-18 06:50:00,43.5,33.3,30.28,ESE,107,0.0,0.0,67,0.00,,,0.00,0,Wunderground v.1.15,2013-04-18 13:50:00,
2013-04-18 06:56:00,43.1,34.3,30.28,ESE,106,1.0,1.0,71,0.00,,,0.00,0,Wunderground v.1.15,2013-04-18 13:56:00,
2013-04-18 07:01:00,43.1,34.0,30.28,ENE,62,0.0,5.0,70,0.00,,,0.00,0,Wunderground v.1.15,2013-04-18 14:01:00,
2013-04-18 07:08:00,43.2,33.7,30.28,ESE,119,0.0,5.0,69,0.00,,,0.00,0,Wunderground v.1.15,2013-04-18 14:08:00,
2013-04-18 07:13:00,43.4,35.0,30.28,East,83,0.0,0.0,72,0.00,,,0.00,0,Wunderground v.1.15,2013-04-18 14:13:00,
2013-04-18 07:19:00,43.5,35.1,30.28,NNE,23,0.0,1.0,72,0.00,,,0.00,0,Wunderground v.1.15,2013-04-18 14:19:00,
2013-04-18 07:25:00,43.9,35.1,30.29,ESE,106,0.0,0.0,71,0.00,,,0.00,0,Wunderground v.1.15,2013-04-18 14:25:00,
2013-04-18 07:31:00,44.4,35.6,30.29,NE,55,0.0,0.0,71,0.00,,,0.00,0,Wunderground v.1.15,2013-04-18 14:31:00,
2013-04-18 07:36:00,45.2,37.1,30.29,NNE,18,0.0,0.0,73,0.00,,,0.00,0,Wunderground v.1.15,2013-04-18 14:36:00,
2013-04-18 07:42:00,45.9,35.9,30.29,ESE,120,2.0,2.0,68,0.00,,,0.00,0,Wunderground v.1.15,2013-04-18 14:42:00,
2013-04-18 07:47:00,46.9,34.6,30.29,ESE,109,3.0,5.0,62,0.00,,,0.00,0,Wunderground v.1.15,2013-04-18 14:47:00,
2013-04-18 07:53:00,47.7,34.9,30.29,SE,134,2.0,4.0,61,0.00,,,0.00,0,Wunderground v.1.15,2013-04-18 14:53:00,
2013-04-18 07:58:00,48.4,35.1,30.30,SE,136,4.0,5.0,60,0.00,,,0.00,0,Wunderground v.1.15,2013-04-18 14:58:00,
2013-04-18 08:04:00,49.1,35.8,30.29,SE,129,0.0,4.0,60,0.00,,,0.00,0,Wunderground v.1.15,2013-04-18 15:04:00,
2013-04-18 08:10:00,49.5,36.2,30.29,ESE,114,2.0,2.0,60,0.00,,,0.00,0,Wunderground v.1.15,2013-04-18 15:10:00,
2013-04-18 08:16:00,50.1,36.7,30.29,SSE,151,2.0,2.0,60,0.00,,,0.00,0,Wunderground v.1.15,2013-04-18 15:16:00,
2013-04-18 08:22:00,50.6,36.8,30.29,SE,128,0.0,1.0,59,0.00,,,0.00,0,Wunderground v.1.15,2013-04-18 15:22:00,
2013-04-18 08:27:00,51.3,37.0,30.29,ESE,123,3.0,5.0,58,0.00,,,0.00,0,Wunderground v.1.15,2013-04-18 15:27:00,
2013-04-18 08:33:00,52.0,37.2,30.29,ESE,118,0.0,3.0,57,0.00,,,0.00,0,Wunderground v.1.15,2013-04-18 15:33:00,
2013-04-18 08:38:00,52.5,37.7,30.29,ESE,110,1.0,3.0,57,0.00,,,0.00,0,Wunderground v.1.15,2013-04-18 15:38:00,
2013-04-18 08:44:00,53.1,39.1,30.29,ESE,112,1.0,1.0,59,0.00,,,0.00,0,Wunderground v.1.15,2013-04-18 15:44:00,
2013-04-18 08:50:00,53.5,39.1,30.29,NE,40,0.0,0.0,58,0.00,,,0.00,0,Wunderground v.1.15,2013-04-18 15:50:00,
2013-04-18 08:56:00,54.0,40.4,30.29,SE,136,0.0,0.0,60,0.00,,,0.00,0,Wunderground v.1.15,2013-04-18 15:56:00,
2013-04-18 09:02:00,54.5,39.1,30.29,ESE,110,2.0,8.0,56,0.00,,,0.00,0,Wunderground v.1.15,2013-04-18 16:02:00,
2013-04-18 09:07:00,55.3,40.3,30.29,South,178,0.0,8.0,57,0.00,,,0.00,0,Wunderground v.1.15,2013-04-18 16:07:00,
2013-04-18 09:13:00,55.7,43.7,30.29,SW,219,3.0,4.0,64,0.00,,,0.00,0,Wunderground v.1.15,2013-04-18 16:13:00,
2013-04-18 09:18:00,55.9,44.7,30.29,SW,224,2.0,4.0,66,0.00,,,0.00,0,Wunderground v.1.15,2013-04-18 16:18:00,
2013-04-18 09:24:00,56.1,44.9,30.29,West,277,1.0,1.0,66,0.00,,,0.00,0,Wunderground v.1.15,2013-04-18 16:24:00,
2013-04-18 09:31:00,56.3,44.3,30.29,SSW,210,3.0,3.0,64,0.00,,,0.00,0,Wunderground v.1.15,2013-04-18 16:31:00,
2013-04-18 09:37:00,56.5,44.0,30.29,West,275,2.0,3.0,63,0.00,,,0.00,0,Wunderground v.1.15,2013-04-18 16:37:00,
2013-04-18 09:42:00,56.7,44.7,30.29,WNW,286,2.0,2.0,64,0.00,,,0.00,0,Wunderground v.1.15,2013-04-18 16:42:00,
2013-04-18 09:47:00,56.9,44.4,30.29,West,261,2.0,3.0,63,0.00,,,0.00,0,Wunderground v.1.15,2013-04-18 16:47:00,
2013-04-18 09:53:00,57.1,44.6,30.29,WSW,240,1.0,3.0,63,0.00,,,0.00,0,Wunderground v.1.15,2013-04-18 16:53:00,
2013-04-18 09:59:00,57.4,43.6,30.29,WSW,240,2.0,3.0,60,0.00,,,0.00,0,Wunderground v.1.15,2013-04-18 16:59:00,
2013-04-18 10:07:00,57.7,43.9,30.29,WNW,297,1.0,5.0,60,0.00,,,0.00,0,Wunderground v.1.15,2013-04-18 17:07:00,
2013-04-18 10:13:00,57.9,42.8,30.29,WNW,282,3.0,4.0,57,0.00,,,0.00,0,Wunderground v.1.15,2013-04-18 17:13:00,
2013-04-18 10:18:00,58.2,43.0,30.29,WNW,295,4.0,4.0,57,0.00,,,0.00,0,Wunderground v.1.15,2013-04-18 17:18:00,
2013-04-18 10:23:00,58.4,42.3,30.30,NNW,338,4.0,4.0,55,0.00,,,0.00,0,Wunderground v.1.15,2013-04-18 17:23:00,
2013-04-18 10:29:00,58.7,42.6,30.29,NNW,342,0.0,0.0,55,0.00,,,0.00,0,Wunderground v.1.15,2013-04-18 17:29:00,
2013-04-18 10:34:00,59.1,42.9,30.30,NW,309,3.0,3.0,55,0.00,,,0.00,0,Wunderground v.1.15,2013-04-18 17:34:00,
2013-04-18 10:40:00,59.7,43.5,30.30,SSW,209,0.0,1.0,55,0.00,,,0.00,0,Wunderground v.1.15,2013-04-18 17:40:00,
2013-04-18 10:46:00,60.1,42.9,30.30,WNW,295,4.0,4.0,53,0.00,,,0.00,0,Wunderground v.1.15,2013-04-18 17:46:00,
2013-04-18 10:52:00,60.3,43.1,30.30,WSW,249,3.0,4.0,53,0.00,,,0.00,0,Wunderground v.1.15,2013-04-18 17:52:00,
2013-04-18 10:57:00,60.8,44.5,30.30,NW,318,3.0,4.0,55,0.00,,,0.00,0,Wunderground v.1.15,2013-04-18 17:57:00,
2013-04-18 11:02:00,61.1,44.3,30.30,WSW,246,2.0,4.0,54,0.00,,,0.00,0,Wunderground v.1.15,2013-04-18 18:02:00,
2013-04-18 11:08:00,61.4,45.1,30.30,SSE,155,2.0,4.0,55,0.00,,,0.00,0,Wunderground v.1.15,2013-04-18 18:08:00,
2013-04-18 11:13:00,61.7,45.4,30.30,West,273,3.0,3.0,55,0.00,,,0.00,0,Wunderground v.1.15,2013-04-18 18:13:00,
2013-04-18 11:19:00,61.9,44.6,30.30,NW,304,4.0,4.0,53,0.00,,,0.00,0,Wunderground v.1.15,2013-04-18 18:19:00,
2013-04-18 11:24:00,62.3,45.9,30.30,West,270,1.0,4.0,55,0.00,,,0.00,0,Wunderground v.1.15,2013-04-18 18:24:00,
2013-04-18 11:30:00,62.9,45.0,30.30,West,267,2.0,2.0,52,0.00,,,0.00,0,Wunderground v.1.15,2013-04-18 18:30:00,
2013-04-18 11:35:00,63.2,44.2,30.29,NNW,331,0.0,4.0,50,0.00,,,0.00,0,Wunderground v.1.15,2013-04-18 18:35:00,
2013-04-18 11:40:00,63.6,45.1,30.29,West,269,1.0,3.0,51,0.00,,,0.00,0,Wunderground v.1.15,2013-04-18 18:40:00,
2013-04-18 11:46:00,64.1,44.5,30.29,SW,231,2.0,4.0,49,0.00,,,0.00,0,Wunderground v.1.15,2013-04-18 18:46:00,
2013-04-18 11:52:00,64.7,46.7,30.29,SSW,198,2.0,4.0,52,0.00,,,0.00,0,Wunderground v.1.15,2013-04-18 18:52:00,
2013-04-18 11:57:00,65.2,47.1,30.29,WNW,287,3.0,4.0,52,0.00,,,0.00,0,Wunderground v.1.15,2013-04-18 18:57:00,
2013-04-18 12:03:00,65.7,43.2,30.29,SE,140,0.0,6.0,44,0.00,,,0.00,0,Wunderground v.1.15,2013-04-18 19:03:00,
2013-04-18 12:08:00,66.0,44.6,30.28,NW,312,0.0,6.0,46,0.00,,,0.00,0,Wunderground v.1.15,2013-04-18 19:08:00,
2013-04-18 12:13:00,66.5,45.1,30.28,WNW,289,2.0,4.0,46,0.00,,,0.00,0,Wunderground v.1.15,2013-04-18 19:13:00,
2013-04-18 12:19:00,67.1,45.0,30.28,SSE,151,2.0,4.0,45,0.00,,,0.00,0,Wunderground v.1.15,2013-04-18 19:19:00,
2013-04-18 12:24:00,67.6,43.7,30.28,SE,130,0.0,2.0,42,0.00,,,0.00,0,Wunderground v.1.15,2013-04-18 19:24:00,
2013-04-18 12:31:00,68.1,42.2,30.28,SSE,156,2.0,3.0,39,0.00,,,0.00,0,Wunderground v.1.15,2013-04-18 19:31:00,
2013-04-18 12:37:00,68.3,42.4,30.28,SE,140,2.0,4.0,39,0.00,,,0.00,0,Wunderground v.1.15,2013-04-18 19:37:00,
2013-04-18 12:42:00,68.3,41.0,30.28,East,99,2.0,4.0,37,0.00,,,0.00,0,Wunderground v.1.15,2013-04-18 19:42:00,
2013-04-18 12:47:00,68.2,39.5,30.28,SE,138,3.0,4.0,35,0.00,,,0.00,0,Wunderground v.1.15,2013-04-18 19:47:00,
2013-04-18 12:53:00,68.7,39.9,30.27,ESE,116,4.0,4.0,35,0.00,,,0.00,0,Wunderground v.1.15,2013-04-18 19:53:00,
2013-04-18 12:59:00,68.5,41.2,30.27,North,0,0.0,0.0,37,0.00,,,0.00,0,Wunderground v.1.15,2013-04-18 19:59:00,
2013-04-18 13:07:00,68.5,41.2,30.27,WNW,284,0.0,7.0,37,0.00,,,0.00,0,Wunderground v.1.15,2013-04-18 20:07:00,
2013-04-18 13:13:00,69.0,43.0,30.27,NW,315,1.0,1.0,39,0.00,,,0.00,0,Wunderground v.1.15,2013-04-18 20:13:00,
2013-04-18 13:18:00,69.4,43.4,30.26,NNW,338,6.0,7.0,39,0.00,,,0.00,0,Wunderground v.1.15,2013-04-18 20:18:00,
2013-04-18 13:23:00,69.5,43.4,30.27,North,352,3.0,4.0,39,0.00,,,0.00,0,Wunderground v.1.15,2013-04-18 20:23:00,
2013-04-18 13:29:00,69.9,43.1,30.26,WSW,237,2.0,2.0,38,0.00,,,0.00,0,Wunderground v.1.15,2013-04-18 20:29:00,
2013-04-18 13:35:00,70.4,43.6,30.26,West,272,4.0,4.0,38,0.00,,,0.00,0,Wunderground v.1.15,2013-04-18 20:35:00,
2013-04-18 13:41:00,70.8,43.2,30.26,ESE,103,0.0,2.0,37,0.00,,,0.00,0,Wunderground v.1.15,2013-04-18 20:41:00,
2013-04-18 13:47:00,71.3,44.4,30.26,NNW,327,1.0,4.0,38,0.00,,,0.00,0,Wunderground v.1.15,2013-04-18 20:47:00,
2013-04-18 13:52:00,71.6,44.6,30.26,WNW,299,1.0,2.0,38,0.00,,,0.00,0,Wunderground v.1.15,2013-04-18 20:52:00,
2013-04-18 13:58:00,71.7,44.7,30.26,NNE,32,1.0,4.0,38,0.00,,,0.00,0,Wunderground v.1.15,2013-04-18 20:58:00,
2013-04-18 14:07:00,72.5,42.5,30.25,NNE,23,0.0,7.0,34,0.00,,,0.00,0,Wunderground v.1.15,2013-04-18 21:07:00,
2013-04-18 14:12:00,72.4,43.2,30.25,NNW,346,1.0,3.0,35,0.00,,,0.00,0,Wunderground v.1.15,2013-04-18 21:12:00,
2013-04-18 14:18:00,72.8,45.7,30.25,NW,308,3.0,5.0,38,0.00,,,0.00,0,Wunderground v.1.15,2013-04-18 21:18:00,
2013-04-18 14:24:00,73.6,47.8,30.25,WNW,287,3.0,7.0,40,0.00,,,0.00,0,Wunderground v.1.15,2013-04-18 21:24:00,
2013-04-18 14:30:00,74.6,45.9,30.24,NW,323,1.0,1.0,36,0.00,,,0.00,0,Wunderground v.1.15,2013-04-18 21:30:00,
2013-04-18 14:35:00,75.1,46.3,30.24,WNW,297,2.0,5.0,36,0.00,,,0.00,0,Wunderground v.1.15,2013-04-18 21:35:00,
2013-04-18 14:40:00,75.0,43.9,30.24,NW,315,2.0,2.0,33,0.00,,,0.00,0,Wunderground v.1.15,2013-04-18 21:40:00,
2013-04-18 14:46:00,75.4,47.3,30.24,NNW,339,2.0,2.0,37,0.00,,,0.00,0,Wunderground v.1.15,2013-04-18 21:46:00,
2013-04-18 14:52:00,75.6,45.2,30.23,NW,306,3.0,3.0,34,0.00,,,0.00,0,Wunderground v.1.15,2013-04-18 21:52:00,
2013-04-18 14:58:00,76.2,45.0,30.23,WNW,298,2.0,5.0,33,0.00,,,0.00,0,Wunderground v.1.15,2013-04-18 21:58:00,
2013-04-18 15:04:00,76.2,45.8,30.23,NW,311,1.0,9.0,34,0.00,,,0.00,0,Wunderground v.1.15,2013-04-18 22:04:00,
2013-04-18 15:09:00,76.6,46.9,30.23,SSW,213,2.0,9.0,35,0.00,,,0.00,0,Wunderground v.1.15,2013-04-18 22:09:00,
2013-04-18 15:15:00,77.1,46.6,30.23,West,277,1.0,4.0,34,0.00,,,0.00,0,Wunderground v.1.15,2013-04-18 22:15:00,
2013-04-18 15:20:00,77.2,47.4,30.23,West,272,2.0,2.0,35,0.00,,,0.00,0,Wunderground v.1.15,2013-04-18 22:20:00,
2013-04-18 15:25:00,77.3,45.9,30.23,WSW,249,4.0,5.0,33,0.00,,,0.00,0,Wunderground v.1.15,2013-04-18 22:25:00,
2013-04-18 15:31:00,77.2,45.9,30.23,NNW,330,2.0,3.0,33,0.00,,,0.00,0,Wunderground v.1.15,2013-04-18 22:31:00,
2013-04-18 15:37:00,77.1,45.8,30.22,North,354,0.0,3.0,33,0.00,,,0.00,0,Wunderground v.1.15,2013-04-18 22:37:00,
2013-04-18 15:43:00,77.1,46.6,30.22,West,267,3.0,4.0,34,0.00,,,0.00,0,Wunderground v.1.15,2013-04-18 22:43:00,
2013-04-18 15:49:00,77.2,46.7,30.22,NW,323,4.0,6.0,34,0.00,,,0.00,0,Wunderground v.1.15,2013-04-18 22:49:00,
2013-04-18 15:54:00,76.7,45.4,30.21,NNW,345,1.0,5.0,33,0.00,,,0.00,0,Wunderground v.1.15,2013-04-18 22:54:00,
2013-04-18 16:00:00,76.9,47.2,30.21,West,277,3.0,7.0,35,0.00,,,0.00,0,Wunderground v.1.15,2013-04-18 23:00:00,
2013-04-18 16:08:00,77.1,47.3,30.21,WNW,290,3.0,7.0,35,0.00,,,0.00,0,Wunderground v.1.15,2013-04-18 23:08:00,
2013-04-18 16:13:00,77.2,46.7,30.21,NNW,329,5.0,5.0,34,0.00,,,0.00,0,Wunderground v.1.15,2013-04-18 23:13:00,
2013-04-18 16:18:00,76.6,45.3,30.21,NW,304,1.0,5.0,33,0.00,,,0.00,0,Wunderground v.1.15,2013-04-18 23:18:00,
2013-04-18 16:25:00,76.3,45.9,30.20,NNE,13,1.0,3.0,34,0.00,,,0.00,0,Wunderground v.1.15,2013-04-18 23:25:00,
2013-04-18 16:31:00,76.1,46.5,30.20,NNE,33,0.0,0.0,35,0.00,,,0.00,0,Wunderground v.1.15,2013-04-18 23:31:00,
2013-04-18 16:36:00,76.4,48.2,30.20,NNW,333,1.0,1.0,37,0.00,,,0.00,0,Wunderground v.1.15,2013-04-18 23:36:00,
2013-04-18 16:42:00,76.4,45.2,30.20,WNW,296,2.0,2.0,33,0.00,,,0.00,0,Wunderground v.1.15,2013-04-18 23:42:00,
2013-04-18 16:48:00,76.3,45.1,30.19,NW,316,1.0,4.0,33,0.00,,,0.00,0,Wunderground v.1.15,2013-04-18 23:48:00,
2013-04-18 16:54:00,76.2,45.8,30.19,WNW,291,0.0,3.0,34,0.00,,,0.00,0,Wunderground v.1.15,2013-04-18 23:54:00,
2013-04-18 16:59:00,76.4,45.2,30.19,WNW,302,2.0,2.0,33,0.00,,,0.00,0,Wunderground v.1.15,2013-04-18 23:59:00,
2013-04-18 17:07:00,76.3,46.6,30.19,NW,317,1.0,9.0,35,0.00,,,0.00,0,Wunderground v.1.15,2013-04-19 00:07:00,
2013-04-18 17:12:00,76.0,44.8,30.19,NNE,17,1.0,4.0,33,0.00,,,0.00,0,Wunderground v.1.15,2013-04-19 00:12:00,
2013-04-18 17:18:00,75.6,46.0,30.19,WNW,301,3.0,4.0,35,0.00,,,0.00,0,Wunderground v.1.15,2013-04-19 00:18:00,
2013-04-18 17:24:00,75.5,45.2,30.19,West,274,3.0,6.0,34,0.00,,,0.00,0,Wunderground v.1.15,2013-04-19 00:24:00,
2013-04-18 17:30:00,75.4,45.8,30.18,NW,309,3.0,3.0,35,0.00,,,0.00,0,Wunderground v.1.15,2013-04-19 00:30:00,
2013-04-18 17:36:00,75.2,47.8,30.18,NNW,338,1.0,3.0,38,0.00,,,0.00,0,Wunderground v.1.15,2013-04-19 00:36:00,
2013-04-18 17:41:00,75.2,44.9,30.18,WNW,290,3.0,4.0,34,0.00,,,0.00,0,Wunderground v.1.15,2013-04-19 00:41:00,
2013-04-18 17:47:00,75.1,44.8,30.18,WNW,289,0.0,4.0,34,0.00,,,0.00,0,Wunderground v.1.15,2013-04-19 00:47:00,
2013-04-18 17:53:00,75.1,44.8,30.18,NW,309,2.0,4.0,34,0.00,,,0.00,0,Wunderground v.1.15,2013-04-19 00:53:00,
2013-04-18 18:00:00,74.9,44.6,30.18,WNW,285,0.0,0.0,34,0.00,,,0.00,0,Wunderground v.1.15,2013-04-19 01:00:00,
2013-04-18 18:07:00,74.7,45.2,30.18,WNW,301,1.0,7.0,35,0.00,,,0.00,0,Wunderground v.1.15,2013-04-19 01:07:00,
2013-04-18 18:12:00,74.6,44.4,30.18,West,262,0.0,3.0,34,0.00,,,0.00,0,Wunderground v.1.15,2013-04-19 01:12:00,
2013-04-18 18:18:00,74.5,44.3,30.18,NW,316,0.0,3.0,34,0.00,,,0.00,0,Wunderground v.1.15,2013-04-19 01:18:00,
2013-04-18 18:24:00,74.3,44.9,30.18,NNW,342,2.0,2.0,35,0.00,,,0.00,0,Wunderground v.1.15,2013-04-19 01:24:00,
2013-04-18 18:30:00,74.0,45.3,30.17,NNW,339,0.0,0.0,36,0.00,,,0.00,0,Wunderground v.1.15,2013-04-19 01:30:00,
2013-04-18 18:35:00,73.9,46.7,30.17,NNW,339,0.0,1.0,38,0.00,,,0.00,0,Wunderground v.1.15,2013-04-19 01:35:00,
2013-04-18 18:41:00,73.7,45.8,30.17,NNW,339,0.0,0.0,37,0.00,,,0.00,0,Wunderground v.1.15,2013-04-19 01:41:00,
2013-04-18 18:47:00,73.5,44.9,30.17,NNW,339,0.0,0.0,36,0.00,,,0.00,0,Wunderground v.1.15,2013-04-19 01:47:00,
2013-04-18 18:53:00,73.3,45.4,30.17,NNW,339,0.0,0.0,37,0.00,,,0.00,0,Wunderground v.1.15,2013-04-19 01:53:00,
2013-04-18 18:59:00,73.2,45.4,30.17,NNW,339,0.0,0.0,37,0.00,,,0.00,0,Wunderground v.1.15,2013-04-19 01:59:00,
2013-04-18 19:07:00,73.0,45.2,30.17,NNW,339,0.0,6.0,37,0.00,,,0.00,0,Wunderground v.1.15,2013-04-19 02:07:00,
2013-04-18 19:12:00,72.8,46.4,30.17,NNW,339,0.0,0.0,39,0.00,,,0.00,0,Wunderground v.1.15,2013-04-19 02:12:00,
2013-04-18 19:19:00,72.4,46.0,30.17,NNW,339,0.0,0.0,39,0.00,,,0.00,0,Wunderground v.1.15,2013-04-19 02:19:00,
2013-04-18 19:25:00,72.1,45.8,30.17,NNW,339,0.0,0.0,39,0.00,,,0.00,0,Wunderground v.1.15,2013-04-19 02:25:00,
2013-04-18 19:30:00,71.8,45.5,30.17,NNW,339,0.0,0.0,39,0.00,,,0.00,0,Wunderground v.1.15,2013-04-19 02:30:00,
2013-04-18 19:36:00,71.4,44.5,30.17,NNW,339,0.0,0.0,38,0.00,,,0.00,0,Wunderground v.1.15,2013-04-19 02:36:00,
2013-04-18 19:42:00,71.0,44.8,30.17,NNW,339,1.0,1.0,39,0.00,,,0.00,0,Wunderground v.1.15,2013-04-19 02:42:00,
2013-04-18 19:49:00,70.3,45.5,30.17,NE,56,0.0,1.0,41,0.00,,,0.00,0,Wunderground v.1.15,2013-04-19 02:49:00,
2013-04-18 19:55:00,69.7,48.6,30.17,NE,56,0.0,0.0,47,0.00,,,0.00,0,Wunderground v.1.15,2013-04-19 02:55:00,
2013-04-18 20:00:00,68.8,47.7,30.16,NE,56,0.0,3.0,47,0.00,,,0.00,0,Wunderground v.1.15,2013-04-19 03:00:00,
2013-04-18 20:07:00,67.5,46.6,30.16,NE,56,0.0,3.0,47,0.00,,,0.00,0,Wunderground v.1.15,2013-04-19 03:07:00,
2013-04-18 20:13:00,67.1,48.9,30.16,NE,56,0.0,0.0,52,0.00,,,0.00,0,Wunderground v.1.15,2013-04-19 03:13:00,
2013-04-18 20:18:00,66.4,49.7,30.17,ESE,119,1.0,2.0,55,0.00,,,0.00,0,Wunderground v.1.15,2013-04-19 03:18:00,
2013-04-18 20:24:00,65.5,49.4,30.17,ESE,107,0.0,1.0,56,0.00,,,0.00,0,Wunderground v.1.15,2013-04-19 03:24:00,
2013-04-18 20:29:00,65.1,50.4,30.17,ESE,107,0.0,0.0,59,0.00,,,0.00,0,Wunderground v.1.15,2013-04-19 03:29:00,
2013-04-18 20:34:00,64.1,50.4,30.17,East,96,0.0,0.0,61,0.00,,,0.00,0,Wunderground v.1.15,2013-04-19 03:34:00,
2013-04-18 20:40:00,63.1,49.9,30.16,East,79,0.0,0.0,62,0.00,,,0.00,0,Wunderground v.1.15,2013-04-19 03:40:00,
2013-04-18 20:46:00,62.7,49.5,30.16,East,79,0.0,0.0,62,0.00,,,0.00,0,Wunderground v.1.15,2013-04-19 03:46:00,
2013-04-18 20:52:00,62.6,49.4,30.17,East,79,0.0,0.0,62,0.00,,,0.00,0,Wunderground v.1.15,2013-04-19 03:52:00,
2013-04-18 20:58:00,62.4,49.2,30.17,East,79,0.0,0.0,62,0.00,,,0.00,0,Wunderground v.1.15,2013-04-19 03:58:00,
2013-04-18 21:01:00,62.1,49.4,30.17,East,79,0.0,1.0,63,0.00,,,0.00,0,Wunderground v.1.15,2013-04-19 04:01:00,
2013-04-18 21:02:00,62.1,49.4,30.17,East,79,0.0,1.0,63,0.00,,,0.00,0,Wunderground v.1.15,2013-04-19 04:02:00,
2013-04-18 21:03:00,62.0,49.3,30.17,East,79,0.0,1.0,63,0.00,,,0.00,0,Wunderground v.1.15,2013-04-19 04:03:00,
2013-04-18 21:09:00,61.5,48.8,30.18,East,79,0.0,1.0,63,0.00,,,0.00,0,Wunderground v.1.15,2013-04-19 04:09:00,
2013-04-18 21:12:00,61.4,49.1,30.18,East,79,0.0,0.0,64,0.00,,,0.00,0,Wunderground v.1.15,2013-04-19 04:12:00,
2013-04-18 21:18:00,61.3,49.0,30.18,East,79,0.0,0.0,64,0.00,,,0.00,0,Wunderground v.1.15,2013-04-19 04:18:00,
2013-04-18 21:23:00,61.2,48.5,30.19,East,79,0.0,0.0,63,0.00,,,0.00,0,Wunderground v.1.15,2013-04-19 04:23:00,
2013-04-18 21:29:00,60.7,48.4,30.19,NNE,31,0.0,0.0,64,0.00,,,0.00,0,Wunderground v.1.15,2013-04-19 04:29:00,
2013-04-18 21:35:00,59.9,48.1,30.19,NE,47,0.0,0.0,65,0.00,,,0.00,0,Wunderground v.1.15,2013-04-19 04:35:00,
2013-04-18 21:41:00,59.3,47.9,30.19,NE,47,0.0,0.0,66,0.00,,,0.00,0,Wunderground v.1.15,2013-04-19 04:41:00,
2013-04-18 21:46:00,58.8,47.9,30.19,NE,50,0.0,0.0,67,0.00,,,0.00,0,Wunderground v.1.15,2013-04-19 04:46:00,
2013-04-18 21:52:00,58.3,47.8,30.20,NE,50,0.0,0.0,68,0.00,,,0.00,0,Wunderground v.1.15,2013-04-19 04:52:00,
2013-04-18 21:58:00,58.3,47.4,30.20,NE,50,0.0,0.0,67,0.00,,,0.00,0,Wunderground v.1.15,2013-04-19 04:58:00,
2013-04-18 22:07:00,58.0,47.1,30.20,NE,54,0.0,1.0,67,0.00,,,0.00,0,Wunderground v.1.15,2013-04-19 05:07:00,
2013-04-18 22:12:00,57.9,47.0,30.20,East,93,0.0,0.0,67,0.00,,,0.00,0,Wunderground v.1.15,2013-04-19 05:12:00,
2013-04-18 22:18:00,57.6,47.5,30.20,East,92,0.0,0.0,69,0.00,,,0.00,0,Wunderground v.1.15,2013-04-19 05:18:00,
2013-04-18 22:24:00,57.4,47.7,30.21,East,92,0.0,0.0,70,0.00,,,0.00,0,Wunderground v.1.15,2013-04-19 05:24:00,
2013-04-18 22:30:00,57.5,47.0,30.21,East,92,0.0,0.0,68,0.00,,,0.00,0,Wunderground v.1.15,2013-04-19 05:30:00,
2013-04-18 22:35:00,57.6,46.7,30.20,East,92,0.0,0.0,67,0.00,,,0.00,0,Wunderground v.1.15,2013-04-19 05:35:00,
2013-04-18 22:41:00,57.6,47.1,30.20,East,96,0.0,0.0,68,0.00,,,0.00,0,Wunderground v.1.15,2013-04-19 05:41:00,
2013-04-18 22:46:00,57.3,47.2,30.20,NE,55,0.0,0.0,69,0.00,,,0.00,0,Wunderground v.1.15,2013-04-19 05:46:00,
2013-04-18 22:52:00,57.1,47.0,30.20,NE,55,0.0,0.0,69,0.00,,,0.00,0,Wunderground v.1.15,2013-04-19 05:52:00,
2013-04-18 22:59:00,57.2,46.7,30.19,ESE,109,0.0,0.0,68,0.00,,,0.00,0,Wunderground v.1.15,2013-04-19 05:59:00,
2013-04-18 23:07:00,57.1,47.0,30.19,NE,44,0.0,0.0,69,0.00,,,0.00,0,Wunderground v.1.15,2013-04-19 06:07:00,
2013-04-18 23:13:00,57.1,47.0,30.19,ENE,60,0.0,1.0,69,0.00,,,0.00,0,Wunderground v.1.15,2013-04-19 06:13:00,
2013-04-18 23:19:00,57.1,47.0,30.20,ENE,60,0.0,1.0,69,0.00,,,0.00,0,Wunderground v.1.15,2013-04-19 06:19:00,
2013-04-18 23:24:00,57.0,46.9,30.20,ENE,61,0.0,0.0,69,0.00,,,0.00,0,Wunderground v.1.15,2013-04-19 06:24:00,
2013-04-18 23:30:00,57.0,47.3,30.20,East,91,0.0,0.0,70,0.00,,,0.00,0,Wunderground v.1.15,2013-04-19 06:30:00,
2013-04-18 23:35:00,56.9,47.2,30.20,East,91,0.0,0.0,70,0.00,,,0.00,0,Wunderground v.1.15,2013-04-19 06:35:00,
2013-04-18 23:42:00,56.8,47.1,30.21,East,91,0.0,0.0,70,0.00,,,0.00,0,Wunderground v.1.15,2013-04-19 06:42:00,
2013-04-18 23:47:00,56.8,47.1,30.21,East,91,0.0,0.0,70,0.00,,,0.00,0,Wunderground v.1.15,2013-04-19 06:47:00,
2013-04-18 23:52:00,56.7,47.0,30.21,East,91,0.0,0.0,70,0.00,,,0.00,0,Wunderground v.1.15,2013-04-19 06:52:00,
2013-04-18 23:58:00,56.7,47.4,30.21,East,91,0.0,0.0,71,0.00,,,0.00,0,Wunderground v.1.15,2013-04-19 06:58:00,